Regional Weather Roundup
Issued by NWS State College, PA

Home | Current Version | Previous Version | Graphics & Text | Print | Product List | Glossary On
Versions: 1 2 3 4 5 6 7 8 9 10 11 12 13 14 15 16 17 18 19 20 21 22 23 24 25 26 27 28 29 30 31 32 33 34 35 36 37 38 39 40 41 42 43 44 45 46 47 48 49 50
497
ASUS41 KCTP 210503
RWRCTP

REGIONAL WEATHER ROUNDUP
NATIONAL WEATHER SERVICE STATE COLLEGE PA
1200 AM EST TUE NOV 21 2017

Note: "fair" indicates few or no clouds below 12,000 feet with no
significant weather and/or obstructions to visibility.

* = STATION THAT DOES NOT REPORT PRECIPITATION /E.G. RAIN...SNOW...ETC/
    THUNDER OR FOG.

PAZ002>004-007>009-013>016-020>023-029>032-210600-
WESTERN PENNSYLVANIA

CITY           SKY/WX    TMP DP  RH WIND       PRES   REMARKS
ERIE           CLEAR     41  22  46 S18G31    29.90F
MEADVILLE      CLOUDY    35  22  58 S13G23    29.94F
FRANKLIN*      CLOUDY    34  21  59 S14       29.98F
NEW CASTLE     FAIR      37  22  54 S5        29.99F
BEAVER COUNTY  NOT AVBL
BUTLER*        CLOUDY    35  21  56 S7        30.01F
PITTSBURGH INT CLOUDY    35  22  58 S6        30.01F
PITTSBURGH     CLEAR     35  20  54 S10       30.02F
INDIANA*       CLEAR     30  25  80 CALM      30.08F
LATROBE        CLEAR     36  21  55 S7        30.05F
WASHINGTON CO* CLEAR     35  21  56 CALM      30.05F
$$

PAZ004>006-010>012-017>019-024>028-033>037-041-042-045-046-049>053-210600-
CENTRAL PENNSYLVANIA

CITY           SKY/WX    TMP DP  RH WIND       PRES   REMARKS
BRADFORD       CLEAR     33  21  61 S8        29.96S
DUBOIS         CLEAR     35  19  52 SW13      30.00F
CLEARFIELD     CLEAR     31  24  75 SW6       30.03F
JOHNSTOWN      CLOUDY    36  19  50 SW10      30.03F
ALTOONA        CLOUDY    40  21  46 SW5       30.07S
STATE COLLEGE  CLEAR     32  23  68 SW9       30.05F
WILLIAMSPORT   CLOUDY    31  26  82 CALM      30.08S
SELINSGROVE    CLEAR     29  25  85 CALM      30.10F
FT INDIANTOWN  CLEAR     29  26  89 CALM      30.12S
CAPITAL CITY   CLOUDY    33  23  66 CALM      30.12S
HARRISBURG     PTCLDY    42  23  46 VRB5      30.12S
YORK           CLOUDY    42  23  46 SW6       30.12F
$$

PAZ038>040-043-044-047-048-054-055-060>062-067>071-210600-
EASTERN PENNSYLVANIA

CITY           SKY/WX    TMP DP  RH WIND       PRES   REMARKS
SCRANTON       CLEAR     38  23  55 SW6       30.06S
MOUNT POCONO   CLEAR     35  21  56 W12       30.05S
ALLENTOWN      CLEAR     31  23  72 CALM      30.12F
QUAKERTOWN*    CLEAR     28  25  86 CALM      30.14S
READING        CLEAR     35  25  66 SE3       30.13R
LANCASTER      CLEAR     33  26  75 E5        30.13F
COATESVILLE    CLEAR     41  23  48 VRB6      30.15S
POTTSTOWN      CLEAR     35  22  58 CALM      30.16R
BLUE BELL      CLEAR     32  27  80 CALM      30.17S
DOYLESTOWN     CLEAR     37  22  54 S5        30.13S
WILLOW GROVE   NOT AVBL
NORTH PHILA    CLEAR     40  28  62 SW3       30.17S
PHILADELPHIA   PTCLDY    40  28  62 S7        30.17S
$$




USA.gov is the U.S. government's official web portal to all federal, state and local government web resources and services.